Location: Borotín
(49.5055°N, 14.6142°E)
Time: 18:11:58
(UTC+00:00)

COSMOS 2455 - Pass Details

Date: 27 May 2022
Orbit: 901 x 908 km, 67.1° (Epoch: 26 June)

Event Time Altitude Azimuth Distance (km) Brightness Sun altitude
Exits shadow 00:25:36 16° 159° (SSE) 2,200 4.4 -16.6°
Maximum altitude 00:29:21 29° 110° (ESE) 1,604 4.2 -16.4°
Drops below altitude 10° 00:34:25 10° 52° (NE) 2,601 6.2 -16.1°
Sets 00:37:13 0° 42° (NE) 3,547 7.4 -15.9°
